EW3230 Weather Reports


Display with metric or nautical units.
time (UTC)temp
F
wind
direction
speed
MPH
gust
MPH
rain 1hr
in
rain 24hr
in
rain mn
in
humidity
%
barometer
mb
20260508173635 63 189 2.0 6.0 0.00 0.00 0.00 44 1008.8
20260508172635 63 134 2.0 5.0 0.00 0.00 0.00 42 1009.0
20260508172135 65 237 2.0 9.0 0.00 0.00 0.00 40 1009.1
20260508170633 65 155 2.0 7.0 0.00 0.00 0.00 35 1009.1
20260508170139 64 255 1.0 6.0 0.00 0.00 0.00 36 1009.1
20260508165135 64 287 1.0 7.0 0.00 0.00 0.00 36 1009.4
20260508163634 64 347 1.0 6.0 0.00 0.00 0.00 34 1009.5
20260508162633 64 221 2.0 8.0 0.00 0.00 0.00 36 1009.5
20260508161629 63 239 0.0 4.0 0.00 0.00 0.00 35 1009.6
20260508160629 62 69 1.0 4.0 0.00 0.00 0.00 35 1009.7
20260508155628 62 115 2.0 8.0 0.00 0.00 0.00 35 1009.9
20260508154628 61 272 2.0 8.0 0.00 0.00 0.00 36 1009.8
20260508153630 61 302 1.0 8.0 0.00 0.00 0.00 36 1009.9
20260508152641 62 236 1.0 4.0 0.00 0.00 0.00 35 1010.0
20260508151629 60 314 1.0 7.0 0.00 0.00 0.00 38 1010.1
20260508150629 60 263 1.0 6.0 0.00 0.00 0.00 37 1010.2
20260508150131 60 250 1.0 7.0 0.00 0.00 0.00 35 1010.4
20260508144622 60 351 1.0 6.0 0.00 0.00 0.00 37 1010.4
20260508144124 60 253 1.0 7.0 0.00 0.00 0.00 38 1010.4
20260508142624 60 287 1.0 10.0 0.00 0.00 0.00 36 1010.5
20260508141622 60 232 1.0 5.0 0.00 0.00 0.00 37 1010.5
20260508140622 59 280 2.0 6.0 0.00 0.00 0.00 39 1010.5
20260508140122 59 304 1.0 4.0 0.00 0.00 0.00 38 1010.6
20260508134622 58 287 1.0 7.0 0.00 0.00 0.00 44 1010.6
20260508133621 58 101 0.0 3.0 0.00 0.00 0.00 41 1010.6
20260508132622 57 41 0.0 4.0 0.00 0.00 0.00 45 1010.6
20260508131616 56 300 0.0 4.0 0.00 0.00 0.00 46 1010.7
20260508131117 56 283 0.0 4.0 0.00 0.00 0.00 47 1010.7
20260508130117 56 129 1.0 3.0 0.00 0.00 0.00 46 1010.7
20260508124616 56 229 1.0 5.0 0.00 0.00 0.00 48 1010.7
20260508123617 55 330 1.0 5.0 0.00 0.00 0.00 50 1010.6
20260508122618 54 285 0.0 2.0 0.00 0.01 0.00 54 1010.7
20260508121617 52 257 0.0 3.0 0.00 0.01 0.00 60 1010.8
20260508121118 50 266 0.0 2.0 0.00 0.02 0.00 61 1010.8
20260508115615 49 267 0.0 2.0 0.00 0.03 0.00 62 1010.9
20260508114613 49 235 0.0 2.0 0.00 0.03 0.00 64 1011.0
20260508113610 49 249 0.0 1.0 0.00 0.03 0.00 65 1010.9
20260508112613 49 229 0.0 1.0 0.00 0.04 0.00 66 1010.7
20260508111611 48 252 0.0 2.0 0.00 0.05 0.00 65 1010.7
20260508110611 47 280 0.0 1.0 0.00 0.05 0.00 68 1010.6
20260508105611 47 280 0.0 1.0 0.00 0.05 0.00 70 1010.6
20260508104611 45 279 0.0 1.0 0.00 0.06 0.00 73 1010.6
20260508103611 44 281 0.0 0.0 0.00 0.07 0.00 75 1010.4
20260508103111 44 281 0.0 0.0 0.00 0.07 0.00 76 1010.2
20260508102106 43 281 0.0 0.0 0.00 0.08 0.00 78 1010.1
20260508100604 42 281 0.0 0.0 0.00 0.09 0.00 80 1010.1
20260508095604 41 281 0.0 0.0 0.00 0.10 0.00 80 1010.0
20260508094604 40 281 0.0 0.0 0.00 0.10 0.00 79 1009.9
20260508093617 40 281 0.0 0.0 0.00 0.11 0.00 81 1009.8
20260508092606 40 281 0.0 0.0 0.00 0.12 0.00 79 1009.8
20260508091604 40 281 0.0 1.0 0.00 0.14 0.00 80 1009.8
20260508090607 40 281 0.0 0.0 0.00 0.15 0.00 80 1009.7
20260508085604 40 281 0.0 0.0 0.00 0.16 0.00 79 1009.6
20260508084558 40 281 0.0 0.0 0.00 0.18 0.00 79 1009.3
20260508083558 41 281 0.0 0.0 0.00 0.19 0.00 77 1009.2
20260508082606 42 281 0.0 0.0 0.00 0.30 0.00 74 1008.9
20260508082559 41 281 0.0 0.0 0.00 0.23 0.00 76 1009.1
20260508081714 42 281 0.0 0.0 0.00 0.41 0.00 73 1008.8
20260508075558 42 281 0.0 0.0 0.00 0.42 0.00 72 1008.7
20260508074600 43 281 0.0 0.0 0.00 0.42 0.00 70 1008.5
20260508073558 43 281 0.0 0.0 0.00 0.42 0.00 70 1008.3
20260508072558 44 281 0.0 0.0 0.00 0.42 0.00 70 1008.3
20260508071554 45 281 0.0 0.0 0.00 0.42 0.00 65 1008.0
20260508070552 46 281 0.0 0.0 0.00 0.42 0.00 64 1008.1
20260508065552 47 281 0.0 0.0 0.00 0.42 0.00 62 1008.2
20260508065055 47 281 0.0 0.0 0.00 0.42 0.00 60 1008.2
20260508063552 47 281 0.0 1.0 0.00 0.42 0.00 59 1008.1
20260508062554 47 281 0.0 0.0 0.00 0.42 0.00 61 1008.1
20260508061552 47 281 0.0 0.0 0.00 0.42 0.00 63 1007.9
20260508060551 48 281 0.0 0.0 0.00 0.42 0.00 63 1007.9
20260508060054 49 281 0.0 0.0 0.00 0.42 0.00 58 1007.9